Regional Weather Roundup
Issued by NWS Upton, NY

Current Version | Previous Version | Graphics & Text | Print | Product List | Glossary Off
Versions: 1 2 3 4 5 6 7 8 9 10 11 12 13 14 15 16 17 18 19 20 21 22 23 24 25 26 27 28 29 30 31 32 33 34 35 36 37 38 39 40 41 42 43 44 45 46 47 48 49 50

000
ASUS41 KOKX 291504
RWROKX

REGIONAL WEATHER ROUNDUP
NATIONAL WEATHER SERVICE NEW YORK NY
1100 AM EDT FRI JUL 29 2016

NOTE: "FAIR" INDICATES FEW OR NO CLOUDS BELOW 12,000 FEET WITH NO
SIGNIFICANT WEATHER AND/OR OBSTRUCTIONS TO VISIBILITY.

NYZ071-072-176-178-NJZ106-104-291600-
NEW YORK CITY METRO AREA

CITY           SKY/WX    TMP DP  RH WIND       PRES   REMARKS
Central Park   CLOUDY    73  68  84 NE8       29.89R
LaGuardia APRT CLOUDY    74  67  78 NE10      29.85R
Kennedy INTL   CLOUDY    74  69  85 N14       29.85S
Newark/Liberty PTSUNNY   75  69  81 N14       29.85S
Bronx Bot Gard   N/A     72  66  83 CALM      29.87F
Wall St Helipt CLOUDY    73  70  88 NE9G17    29.86S
Teterboro      PTSUNNY   76  68  76 N8        29.85S
$$

NYZ177-179-078>081-291600-
LONG ISLAND NEW YORK

CITY           SKY/WX    TMP DP  RH WIND       PRES   REMARKS
Farmingdale    LGT RAIN  71  69  93 NE13      29.84F
MacArthur/ISP  LGT RAIN  70  68  93 NE13      29.84S FOG
Shirley        LGT RAIN N/A N/A N/A N8        29.85S
Riverhead      NOT AVBL
Westhampton    HVY RAIN  69  67  93 N15       29.86S FOG
Southhampton     N/A     68  68 100 NE7       29.80F
Bridgehampton    N/A     68  68 100 E3        29.85S
East Hampton   RAIN      69  68  96 NE9       29.85S
Montauk          N/A     69  68  96 N7        29.87R
$$

NYZ052-065-067-291600-
HUDSON VALLEY

CITY           SKY/WX    TMP DP  RH WIND       PRES   REMARKS
White Plains   CLOUDY    75  69  81 NE8       29.86F
Newburgh       PTSUNNY   77  70  78 E14       29.90F
Montgomery     SUNNY     78  68  71 NE6       29.89S
Poughkeepsie   PTSUNNY   81  69  67 N8        29.87F
Albany         PTSUNNY   76  67  73 NW8       29.90S
$$

NJZ001-105-106-008-010-013-015-019>022-104-291600-
NEW JERSEY

CITY           SKY/WX    TMP DP  RH WIND       PRES   REMARKS
Newark/Liberty PTSUNNY   75  69  81 N14       29.85S
Teterboro      PTSUNNY   76  68  76 N8        29.85S
Caldwell       PTSUNNY   74  68  81 NE5       29.87F
Morristown     PTSUNNY   73  66  78 NE9       29.87F
Somerville     PTSUNNY   80  69  69 NE7       29.84F
Linden         CLOUDY    74  68  80 CALM      29.87S
Sussex         PTSUNNY   78  69  73 N7        29.89S
Abdover          N/A     77  68  73 VRB3      29.89S
Trenton        PTSUNNY   77  69  76 N8        29.85S
Millville      MOSUNNY   80  70  71 N13       29.83S
Atlantic City  PTSUNNY   78  71  79 N15       29.81R
Wrightstown    PTSUNNY   76  71  85 N13G18    29.81S
Toms River     CLOUDY    75  71  87 N12       29.82F
Belmar         CLOUDY    72  70  93 N10       29.85S
$$

PAZ047>061-062-071-291600-
EASTERN PENNSYLVANIA

CITY           SKY/WX    TMP DP  RH WIND       PRES   REMARKS
Philadelphia   MOSUNNY   80  69  69 N15G22    29.85R
Allentown      PTSUNNY   79  68  69 N9        29.88S
Scranton       MOSUNNY   79  68  69 VRB6      29.91F
$$

CTZ002-004>006-009-010-012-RIZ004-006-007-MAZ004-011-015-291600-
SOUTHERN NEW ENGLAND
 IN CT

CITY           SKY/WX    TMP DP  RH WIND       PRES   REMARKS
Bradley INTL   CLOUDY    77  70  79 NE5       29.89R
Hartford       CLOUDY    77  71  82 NE6       29.87S
Danbury        CLOUDY    75  69  81 NE7       29.89S
Wtrbury/Oxford PTSUNNY   72  66  83 E5        29.91R
Bridgeport     LGT RAIN  74  69  85 NE7       29.86S
Meriden        CLOUDY    76  71  85 N5        29.87S
New Haven      LGT RAIN  72  69  90 NE6       29.87S FOG
Chester        DRIZZLE   72  70  94 CALM      29.88F
Groton         HVY RAIN  71  68  90 NE12      29.86R FOG
Wilimantic     PTSUNNY   75  70  84 NE5       29.89S

 IN RI

CITY           SKY/WX    TMP DP  RH WIND       PRES   REMARKS
Providence     LGT RAIN  74  70  87 N6        29.88R
Block Island   RAIN      69  68  96 NE10      29.87R FOG
Westerly       HVY RAIN  70  66  87 N6        29.89R VSB 1
 IN MA

CITY           SKY/WX    TMP DP  RH WIND       PRES   REMARKS
Boston         LGT RAIN  73  70  90 N6        29.88R
Worchester     CLOUDY    71  67  87 VRB3      29.92S
Westfield      CLOUDY    79  68  69 NE3       29.89R
Provincetown   LGT RAIN  72  71  97 N6        29.87S FOG
Nantucket      LGT RAIN  74  73  97 E3        29.86S FOG
$$

ANZ330-335-338-340-345-350-353-355-291600-
COASTAL MARINE OBSERVATIONS


STATION/POSITION TIME  SKY/WX   TEMP    WIND        PRES    VSBY  WAVE
                                AIR SEA DIR/SP/G                  HT/PER
                 (UTC)          (F)     (DEG/KT/KT) (MB)    (MI)  (FT/S)
NY HARB ENTRANCE 1350            69 72  350/ 21/ 25 1009.5          3/ 4
20S FIRE ISLAND  1350            72 76   40/ 21/ 25 1008.3          3/ 4
GREAT SOUTH BAY  1400            71 81   10/ 12/ 19   N/A
23 SSW MONTAUK P 1350            71 73   60/ 10/ 12 1010.2          2/ 3
15 E BARNEGAT LI 1400               78                N/A           2/ 3
HUDSON CANYON    1350            77 79              1007.7          2/ 3
KINGS POINT      1400            71 72              1010.4
EXECUTION ROCKS  1400            71      30/ 10/ 14   N/A
CENTRAL LI SOUND NOT AVBL
EASTERN LI SOUND 1400            70 67  360/ 10/ 14   N/A
ROBBINS REEF     1400            71      10/  8/  9 1009.9
$$


>>>>>>>>>>>>>>>>>>>>>>>>>>>> KEY <<<<<<<<<<<<<<<<<<<<<<<<<<<
>                                                          <
>     SKY/WX - Sky Condition/Present Weather               <
>     TMP    - Temperature in Fahrenheit                   <
>     DP     - Dew Point in Fahrenheit                     <
>     RH     - Relative Humidity in Percent                <
>     WIND   - Direction (from) and Speed in MPH           <
>     PRES   - Mean Sea Level Pressure (inches of Hg)      <
>     WCI    - Wind Chill Index                            <
>     VSB    - VISIBILITY IN MILES                         <
>     HX     - HEAT INDEX                                  <
>     TC     - TEMPERATURE IN CELSIUS                      <
>     VRB    - VARIABLE WIND DIRECTION                     <
>                                                          <
>>>>>>>>>>>>>>>>>>>>>>>>>>>> KEY <<<<<<<<<<<<<<<<<<<<<<<<<<<



USA.gov is the U.S. government's official web portal to all federal, state and local government web resources and services.